,,,PA_Meas_PMT16A,,PR_Meas_QMR101_102,,RH_Meas_QMH101,,SR_Meas_QMS101,,TA_Meas_QMH101,,GenWind,,GenWind,
date,time,status,PA,status,PR,status,RH,status,SR,status,TA,status,DirAvg,status,SpdAvg,
2008-07-29, 00:00:04,VALID,1009.5,VALID,0,VALID,95.6269,VALID,0,VALID,24.2007,VALID,2,VALID,0.758594,
2008-07-29, 00:01:04,VALID,1009.49,VALID,0,VALID,95.6117,VALID,0,VALID,24.1617,VALID,2,VALID,0.590625,
2008-07-29, 00:02:04,VALID,1009.48,VALID,0,VALID,95.5736,VALID,0,VALID,24.1422,VALID,2,VALID,0.486328,
2008-07-29, 00:03:04,VALID,1009.48,VALID,0,VALID,95.5736,VALID,0,VALID,24.1032,VALID,2,VALID,0.129688,
2008-07-29, 00:04:04,VALID,1009.51,VALID,0,VALID,95.6041,VALID,0,VALID,24.1032,VALID,2,VALID,0.0109375,
2008-07-29, 00:05:04,VALID,1009.51,VALID,0,VALID,95.5964,VALID,0,VALID,24.0837,VALID,106,VALID,0.359766,
2008-07-29, 00:06:04,VALID,1009.53,VALID,0,VALID,95.6193,VALID,0,VALID,24.0837,VALID,106,VALID,0.527734,
2008-07-29, 00:07:04,VALID,1009.51,VALID,0,VALID,95.6498,VALID,0,VALID,24.1032,VALID,123,VALID,0.478906,
2008-07-29, 00:08:04,VALID,1009.49,VALID,0,VALID,95.6651,VALID,0,VALID,24.1227,VALID,146,VALID,0.410156,
2008-07-29, 00:09:04,VALID,1009.46,VALID,0,VALID,95.6574,VALID,0,VALID,24.1032,VALID,146,VALID,0.213672,
2008-07-29, 00:10:04,VALID,1009.45,VALID,0,VALID,95.6651,VALID,0,VALID,24.1422,VALID,146,VALID,0.398438,
2008-07-29, 00:11:04,VALID,1009.41,VALID,0,VALID,95.6422,VALID,0,VALID,24.1812,VALID,332,VALID,0.540625,
2008-07-29, 00:12:04,VALID,1009.42,VALID,0,VALID,95.6498,VALID,0,VALID,24.1227,VALID,332,VALID,0.469922,
2008-07-29, 00:13:04,VALID,1009.43,VALID,0,VALID,95.6574,VALID,0,VALID,24.1422,VALID,332,VALID,0.328125,
2008-07-29, 00:14:04,VALID,1009.45,VALID,0,VALID,95.6498,VALID,0,VALID,24.1227,VALID,332,VALID,0.101172,
2008-07-29, 00:15:04,VALID,1009.43,VALID,0,VALID,95.6346,VALID,0.105969,VALID,24.1014,VALID,332,VALID,0,
2008-07-29, 00:16:04,VALID,1009.45,VALID,0,VALID,95.6269,VALID,0.105969,VALID,24.0624,VALID,332,VALID,0,
2008-07-29, 00:17:04,VALID,1009.45,VALID,0,VALID,95.6574,VALID,0.105969,VALID,24.0837,VALID,332,VALID,0,
2008-07-29, 00:18:04,VALID,1009.43,VALID,0,VALID,95.6422,VALID,0.105969,VALID,24.0624,VALID,332,VALID,0.129688,
2008-07-29, 00:19:04,VALID,1009.41,VALID,0,VALID,95.6574,VALID,0.105969,VALID,24.0429,VALID,332,VALID,0.291406,
2008-07-29, 00:20:04,VALID,1009.4,VALID,0,VALID,95.6574,VALID,0.105969,VALID,24.0429,VALID,332,VALID,0.363672,
2008-07-29, 00:21:04,VALID,1009.37,VALID,0,VALID,95.6422,VALID,0,VALID,24.0253,VALID,5,VALID,0.472656,
2008-07-29, 00:22:04,VALID,1009.38,VALID,0,VALID,95.6346,VALID,0.105969,VALID,23.9845,VALID,5,VALID,0.500391,
2008-07-29, 00:23:04,VALID,1009.36,VALID,0,VALID,95.6498,VALID,0.105969,VALID,23.9845,VALID,5,VALID,0.544141,
2008-07-29, 00:24:04,VALID,1009.31,VALID,0,VALID,95.6498,VALID,0.105969,VALID,23.9863,VALID,5,VALID,0.538281,
2008-07-29, 00:25:04,VALID,1009.33,VALID,0,VALID,95.6346,VALID,0,VALID,23.926,VALID,5,VALID,0.584766,
2008-07-29, 00:26:04,VALID,1009.33,VALID,0,VALID,95.6498,VALID,0.105969,VALID,23.9455,VALID,4,VALID,0.576563,
2008-07-29, 00:27:04,VALID,1009.32,VALID,0,VALID,95.6574,VALID,0,VALID,23.9455,VALID,352,VALID,0.570703,
2008-07-29, 00:28:04,VALID,1009.34,VALID,0,VALID,95.6651,VALID,0.105969,VALID,23.926,VALID,352,VALID,0.39375,
2008-07-29, 00:29:04,VALID,1009.3,VALID,0,VALID,95.688,VALID,0.105969,VALID,23.9455,VALID,352,VALID,0.284375,
2008-07-29, 00:30:04,VALID,1009.31,VALID,0,VALID,95.688,VALID,0,VALID,23.926,VALID,341,VALID,0.398438,
2008-07-29, 00:31:04,VALID,1009.31,VALID,0,VALID,95.6956,VALID,0.105969,VALID,23.926,VALID,335,VALID,0.311719,
2008-07-29, 00:32:04,VALID,1009.3,VALID,0,VALID,95.7032,VALID,0,VALID,23.9455,VALID,335,VALID,0.235156,
2008-07-29, 00:33:04,VALID,1009.27,VALID,0,VALID,95.6956,VALID,0,VALID,23.9668,VALID,324,VALID,0.469531,
2008-07-29, 00:34:04,VALID,1009.24,VALID,0,VALID,95.688,VALID,0,VALID,23.9455,VALID,309,VALID,0.455859,
2008-07-29, 00:35:04,VALID,1009.23,VALID,0,VALID,95.6727,VALID,0,VALID,23.9845,VALID,322,VALID,0.702734,
2008-07-29, 00:36:04,VALID,1009.22,VALID,0,VALID,95.6727,VALID,0.105969,VALID,23.9473,VALID,329,VALID,0.572266,
2008-07-29, 00:37:04,VALID,1009.23,VALID,0,VALID,95.6727,VALID,0.105969,VALID,23.9455,VALID,330,VALID,0.442187,
2008-07-29, 00:38:04,VALID,1009.26,VALID,0,VALID,95.6574,VALID,0.105969,VALID,23.9455,VALID,330,VALID,0.302344,
2008-07-29, 00:39:04,VALID,1009.27,VALID,0,VALID,95.6803,VALID,0,VALID,23.926,VALID,330,VALID,0.00234375,
2008-07-29, 00:40:04,VALID,1009.33,VALID,0,VALID,95.6956,VALID,0.105969,VALID,23.926,VALID,151,VALID,0.94375,
2008-07-29, 00:41:04,VALID,1009.4,VALID,0,VALID,95.7185,VALID,0.105969,VALID,23.965,VALID,147,VALID,1.31289,
2008-07-29, 00:42:04,VALID,1009.46,VALID,0,VALID,95.7032,VALID,0,VALID,23.965,VALID,145,VALID,1.62461,
2008-07-29, 00:43:04,VALID,1009.49,VALID,0,VALID,95.7032,VALID,0.105969,VALID,23.9845,VALID,148,VALID,1.46953,
2008-07-29, 00:44:04,VALID,1009.51,VALID,0,VALID,95.6727,VALID,0.105969,VALID,24.0235,VALID,149,VALID,0.958594,
2008-07-29, 00:45:04,VALID,1009.5,VALID,0,VALID,95.6727,VALID,0,VALID,24.0253,VALID,137,VALID,0.896094,
2008-07-29, 00:46:04,VALID,1009.47,VALID,0,VALID,95.6574,VALID,0,VALID,24.0448,VALID,133,VALID,0.935547,
2008-07-29, 00:47:04,VALID,1009.42,VALID,0,VALID,95.6193,VALID,0,VALID,24.0856,VALID,138,VALID,0.648828,
2008-07-29, 00:48:04,VALID,1009.34,VALID,0,VALID,95.6117,VALID,0,VALID,24.0643,VALID,169,VALID,0.55,
2008-07-29, 00:49:04,VALID,1009.3,VALID,0,VALID,95.5736,VALID,0,VALID,24.0643,VALID,153,VALID,0.345313,
2008-07-29, 00:50:04,VALID,1009.28,VALID,0,VALID,95.5583,VALID,0,VALID,24.1051,VALID,153,VALID,0.0746094,
2008-07-29, 00:51:04,VALID,1009.26,VALID,0,VALID,95.5431,VALID,0,VALID,24.0837,VALID,153,VALID,0,
2008-07-29, 00:52:04,VALID,1009.24,VALID,0,VALID,95.5354,VALID,0,VALID,24.1032,VALID,153,VALID,0.0761719,
2008-07-29, 00:53:04,VALID,1009.2,VALID,0,VALID,95.5278,VALID,0,VALID,24.1227,VALID,153,VALID,0.526172,
2008-07-29, 00:54:04,VALID,1009.18,VALID,0,VALID,95.5354,VALID,0,VALID,24.0819,VALID,153,VALID,0.527734,
2008-07-29, 00:55:04,VALID,1009.15,VALID,0,VALID,95.5126,VALID,0,VALID,24.1032,VALID,154,VALID,0.467578,
2008-07-29, 00:56:04,VALID,1009.11,VALID,0,VALID,95.4973,VALID,0,VALID,24.0253,VALID,154,VALID,0.414453,
2008-07-29, 00:57:04,VALID,1009.08,VALID,0,VALID,95.5278,VALID,0,VALID,24.0448,VALID,154,VALID,0.303125,
2008-07-29, 00:58:04,VALID,1009.05,VALID,0,VALID,95.5126,VALID,0,VALID,24.0253,VALID,154,VALID,0.075,
2008-07-29, 00:59:04,VALID,1009.03,VALID,0,VALID,95.5049,VALID,0,VALID,24.0058,VALID,154,VALID,0,
2008-07-29, 01:00:04,VALID,1009.03,VALID,0,VALID,95.5354,VALID,0.105969,VALID,23.9845,VALID,154,VALID,0.0664063,
2008-07-29, 01:01:04,VALID,1009.03,VALID,0,VALID,95.5202,VALID,0.105969,VALID,23.965,VALID,150,VALID,0.433594,
2008-07-29, 01:02:04,VALID,1008.99,VALID,0,VALID,95.5278,VALID,0.105969,VALID,23.9455,VALID,150,VALID,0.387109,
2008-07-29, 01:03:04,VALID,1008.99,VALID,0,VALID,95.5354,VALID,0.105969,VALID,23.9845,VALID,150,VALID,0.457812,
2008-07-29, 01:04:04,VALID,1008.98,VALID,0,VALID,95.5736,VALID,0,VALID,24.004,VALID,143,VALID,0.361719,
2008-07-29, 01:05:04,VALID,1008.96,VALID,0,VALID,95.5964,VALID,0.105969,VALID,24.0253,VALID,143,VALID,0.134375,
2008-07-29, 01:06:04,VALID,1008.93,VALID,0,VALID,95.6193,VALID,0.105969,VALID,24.0235,VALID,143,VALID,0.180859,
2008-07-29, 01:07:04,VALID,1008.94,VALID,0,VALID,95.6041,VALID,0.105969,VALID,24.0429,VALID,143,VALID,0.156641,
2008-07-29, 01:08:04,VALID,1008.91,VALID,0,VALID,95.6193,VALID,0.105969,VALID,24.004,VALID,143,VALID,0.374219,
2008-07-29, 01:09:04,VALID,1008.9,VALID,0,VALID,95.6117,VALID,0.105969,VALID,24.0448,VALID,143,VALID,0.454297,
2008-07-29, 01:10:04,VALID,1008.91,VALID,0,VALID,95.6117,VALID,0.105969,VALID,24.0448,VALID,143,VALID,0.357422,
2008-07-29, 01:11:04,VALID,1008.87,VALID,0,VALID,95.6193,VALID,0.105969,VALID,24.0235,VALID,143,VALID,0.338672,
2008-07-29, 01:12:04,VALID,1008.85,VALID,0,VALID,95.6041,VALID,0.105969,VALID,24.0448,VALID,143,VALID,0.544531,
2008-07-29, 01:13:04,VALID,1008.82,VALID,0,VALID,95.5964,VALID,0.105969,VALID,24.004,VALID,137,VALID,0.677734,
2008-07-29, 01:14:04,VALID,1008.8,VALID,0,VALID,95.5888,VALID,0.105969,VALID,24.004,VALID,129,VALID,0.707812,
2008-07-29, 01:15:04,VALID,1008.75,VALID,0,VALID,95.6041,VALID,0,VALID,24.0253,VALID,110,VALID,0.807031,
2008-07-29, 01:16:04,VALID,1008.71,VALID,0,VALID,95.5888,VALID,0,VALID,24.0643,VALID,108,VALID,0.955859,
2008-07-29, 01:17:04,VALID,1008.69,VALID,0,VALID,95.5964,VALID,0,VALID,24.0643,VALID,101,VALID,0.603516,
2008-07-29, 01:18:04,VALID,1008.67,VALID,0,VALID,95.5736,VALID,0,VALID,24.0466,VALID,105,VALID,1.06094,
2008-07-29, 01:19:04,VALID,1008.67,VALID,0,VALID,95.5354,VALID,0,VALID,24.0643,VALID,115,VALID,1.00078,
2008-07-29, 01:20:04,VALID,1008.66,VALID,0,VALID,95.5049,VALID,0,VALID,24.0837,VALID,120,VALID,0.826953,
2008-07-29, 01:21:04,VALID,1008.66,VALID,0,VALID,95.4744,VALID,0,VALID,24.1032,VALID,132,VALID,0.544141,
2008-07-29, 01:22:04,VALID,1008.66,VALID,0,VALID,95.4287,VALID,0,VALID,24.1051,VALID,133,VALID,1.09609,
2008-07-29, 01:23:04,VALID,1008.65,VALID,0,VALID,95.3753,VALID,0,VALID,24.1032,VALID,139,VALID,1.08359,
2008-07-29, 01:24:04,VALID,1008.65,VALID,0,VALID,95.3067,VALID,0,VALID,24.0837,VALID,151,VALID,0.704297,
2008-07-29, 01:25:04,VALID,1008.64,VALID,0,VALID,95.2838,VALID,0,VALID,24.0837,VALID,187,VALID,0.744922,
2008-07-29, 01:26:04,VALID,1008.62,VALID,0,VALID,95.2762,VALID,0,VALID,24.0837,VALID,185,VALID,0.561328,
2008-07-29, 01:27:04,VALID,1008.64,VALID,0,VALID,95.2685,VALID,0,VALID,24.0837,VALID,166,VALID,0.249609,
2008-07-29, 01:28:04,VALID,1008.62,VALID,0,VALID,95.238,VALID,0,VALID,24.0837,VALID,168,VALID,0.266797,
2008-07-29, 01:29:04,VALID,1008.61,VALID,0,VALID,95.2762,VALID,0,VALID,24.0448,VALID,184,VALID,0.0183594,
2008-07-29, 01:30:04,VALID,1008.55,VALID,0,VALID,95.2685,VALID,0,VALID,24.0837,VALID,184,VALID,0.0160156,
2008-07-29, 01:31:04,VALID,1008.55,VALID,0,VALID,95.2609,VALID,0,VALID,24.0448,VALID,172,VALID,0.471094,
2008-07-29, 01:32:04,VALID,1008.48,VALID,0,VALID,95.2838,VALID,0,VALID,24.0837,VALID,168,VALID,0.428125,
2008-07-29, 01:33:04,VALID,1008.52,VALID,0,VALID,95.2685,VALID,0,VALID,24.0837,VALID,147,VALID,0.393359,
2008-07-29, 01:34:04,VALID,1008.46,VALID,0,VALID,95.2457,VALID,0,VALID,24.0837,VALID,92,VALID,0.535937,
2008-07-29, 01:35:04,VALID,1008.45,VALID,0,VALID,95.2304,VALID,0,VALID,24.0837,VALID,108,VALID,0.428125,
2008-07-29, 01:36:04,VALID,1008.44,VALID,0,VALID,95.2228,VALID,0,VALID,24.1032,VALID,108,VALID,0.00234375,
2008-07-29, 01:37:04,VALID,1008.47,VALID,0,VALID,95.1999,VALID,0,VALID,24.1032,VALID,108,VALID,0.021875,
2008-07-29, 01:38:04,VALID,1008.46,VALID,0,VALID,95.1999,VALID,0,VALID,24.144,VALID,108,VALID,0.280469,
2008-07-29, 01:39:04,VALID,1008.5,VALID,0,VALID,95.2152,VALID,0,VALID,24.1032,VALID,108,VALID,0.169922,
2008-07-29, 01:40:04,VALID,1008.5,VALID,0,VALID,95.1847,VALID,0,VALID,24.1032,VALID,183,VALID,0.400391,
2008-07-29, 01:41:04,VALID,1008.5,VALID,0,VALID,95.1847,VALID,0,VALID,24.0837,VALID,188,VALID,0.425,
2008-07-29, 01:42:04,VALID,1008.54,VALID,0,VALID,95.1999,VALID,0,VALID,24.0643,VALID,202,VALID,0.474219,
2008-07-29, 01:43:04,VALID,1008.51,VALID,0,VALID,95.1694,VALID,0,VALID,24.0643,VALID,202,VALID,0.40625,
2008-07-29, 01:44:04,VALID,1008.49,VALID,0,VALID,95.177,VALID,0,VALID,24.0448,VALID,202,VALID,0.309766,
2008-07-29, 01:45:04,VALID,1008.47,VALID,0,VALID,95.1923,VALID,0.105969,VALID,24.0429,VALID,202,VALID,0,
2008-07-29, 01:46:04,VALID,1008.46,VALID,0,VALID,95.238,VALID,0,VALID,24.0429,VALID,202,VALID,0,
2008-07-29, 01:47:04,VALID,1008.43,VALID,0,VALID,95.2533,VALID,0.105969,VALID,24.0429,VALID,202,VALID,0.00117188,
2008-07-29, 01:48:04,VALID,1008.37,VALID,0,VALID,95.2609,VALID,0,VALID,24.0235,VALID,202,VALID,0.264844,
2008-07-29, 01:49:04,VALID,1008.34,VALID,0,VALID,95.2762,VALID,0.105969,VALID,24.0429,VALID,151,VALID,0.403906,
2008-07-29, 01:50:04,VALID,1008.39,VALID,0,VALID,95.2838,VALID,0.105969,VALID,24.0235,VALID,147,VALID,0.516016,
2008-07-29, 01:51:04,VALID,1008.38,VALID,0,VALID,95.2762,VALID,0.105969,VALID,24.0624,VALID,139,VALID,0.594531,
2008-07-29, 01:52:04,VALID,1008.36,VALID,0,VALID,95.2685,VALID,0,VALID,24.0429,VALID,133,VALID,0.557813,
2008-07-29, 01:53:04,VALID,1008.37,VALID,0,VALID,95.2609,VALID,0.105969,VALID,24.0429,VALID,130,VALID,0.410156,
2008-07-29, 01:54:04,VALID,1008.33,VALID,0,VALID,95.2838,VALID,0.105969,VALID,24.0837,VALID,130,VALID,0.352344,
2008-07-29, 01:55:04,VALID,1008.35,VALID,0,VALID,95.2609,VALID,0,VALID,24.1032,VALID,130,VALID,0.227344,
2008-07-29, 01:56:04,VALID,1008.35,VALID,0,VALID,95.2609,VALID,0.105969,VALID,24.0624,VALID,130,VALID,0.113672,
2008-07-29, 01:57:04,VALID,1008.34,VALID,0,VALID,95.2457,VALID,0,VALID,24.0837,VALID,130,VALID,0.316797,
2008-07-29, 01:58:04,VALID,1008.33,VALID,0,VALID,95.2457,VALID,0,VALID,24.0429,VALID,130,VALID,0.219531,
2008-07-29, 01:59:04,VALID,1008.33,VALID,0,VALID,95.2228,VALID,0.105969,VALID,24.0643,VALID,130,VALID,0.264062,
2008-07-29, 02:00:04,VALID,1008.29,VALID,0,VALID,95.2228,VALID,0,VALID,24.0661,VALID,130,VALID,0.310937,
2008-07-29, 02:01:04,VALID,1008.26,VALID,0,VALID,95.2304,VALID,0,VALID,24.0661,VALID,186,VALID,0.291406,
2008-07-29, 02:02:04,VALID,1008.22,VALID,0,VALID,95.1923,VALID,0,VALID,24.0448,VALID,191,VALID,0.26875,
2008-07-29, 02:03:04,VALID,1008.19,VALID,0,VALID,95.2075,VALID,0,VALID,24.0661,VALID,197,VALID,0.109375,
2008-07-29, 02:04:04,VALID,1008.15,VALID,0,VALID,95.2228,VALID,0.105969,VALID,24.0429,VALID,197,VALID,0.367578,
2008-07-29, 02:05:04,VALID,1008.13,VALID,0,VALID,95.2304,VALID,0.105969,VALID,24.0235,VALID,197,VALID,0.410937,
2008-07-29, 02:06:04,VALID,1008.12,VALID,0,VALID,95.2304,VALID,0,VALID,24.0253,VALID,197,VALID,0.415234,
2008-07-29, 02:07:04,VALID,1008.13,VALID,0,VALID,95.2075,VALID,0.105969,VALID,23.9845,VALID,197,VALID,0.305078,
2008-07-29, 02:08:04,VALID,1008.16,VALID,0,VALID,95.1923,VALID,0,VALID,23.926,VALID,196,VALID,0.410547,
2008-07-29, 02:09:04,VALID,1008.16,VALID,0,VALID,95.1847,VALID,0.105969,VALID,23.8871,VALID,76,VALID,0.333984,
2008-07-29, 02:10:04,VALID,1008.16,VALID,0,VALID,95.2075,VALID,0.105969,VALID,23.8481,VALID,76,VALID,0.172266,
2008-07-29, 02:11:04,VALID,1008.17,VALID,0,VALID,95.2533,VALID,0,VALID,23.8286,VALID,76,VALID,0,
2008-07-29, 02:12:04,VALID,1008.2,VALID,0,VALID,95.2914,VALID,0.105969,VALID,23.8091,VALID,76,VALID,0,
2008-07-29, 02:13:04,VALID,1008.19,VALID,0,VALID,95.36,VALID,0.105969,VALID,23.8091,VALID,76,VALID,0,
2008-07-29, 02:14:04,VALID,1008.22,VALID,0,VALID,95.4439,VALID,0.105969,VALID,23.8694,VALID,76,VALID,0.204297,
2008-07-29, 02:15:04,VALID,1008.29,VALID,0,VALID,95.4439,VALID,0.105969,VALID,23.8481,VALID,76,VALID,0.174609,
2008-07-29, 02:16:04,VALID,1008.27,VALID,0,VALID,95.4668,VALID,0.105969,VALID,23.8481,VALID,76,VALID,0.0917969,
2008-07-29, 02:17:04,VALID,1008.3,VALID,0,VALID,95.4744,VALID,0.105969,VALID,23.8481,VALID,76,VALID,0.223438,
2008-07-29, 02:18:04,VALID,1008.28,VALID,0,VALID,95.5126,VALID,0.105969,VALID,23.8481,VALID,76,VALID,0,
2008-07-29, 02:19:04,VALID,1008.3,VALID,0,VALID,95.5202,VALID,0.105969,VALID,23.8676,VALID,76,VALID,0.00820312,
2008-07-29, 02:20:04,VALID,1008.29,VALID,0,VALID,95.5354,VALID,0.105969,VALID,23.8676,VALID,76,VALID,0.143359,
2008-07-29, 02:21:04,VALID,1008.3,VALID,0,VALID,95.5354,VALID,0.105969,VALID,23.8871,VALID,76,VALID,0.309375,
2008-07-29, 02:22:04,VALID,1008.28,VALID,0,VALID,95.5354,VALID,0.105969,VALID,23.8268,VALID,76,VALID,0.292969,
2008-07-29, 02:23:04,VALID,1008.3,VALID,0,VALID,95.5278,VALID,0.105969,VALID,23.8286,VALID,82,VALID,0.407031,
2008-07-29, 02:24:04,VALID,1008.29,VALID,0,VALID,95.5126,VALID,0.105969,VALID,23.7896,VALID,146,VALID,0.540625,
2008-07-29, 02:25:04,VALID,1008.33,VALID,0,VALID,95.4973,VALID,0.105969,VALID,23.7701,VALID,151,VALID,0.596875,
2008-07-29, 02:26:04,VALID,1008.35,VALID,0,VALID,95.5202,VALID,0.105969,VALID,23.772,VALID,152,VALID,0.623047,
2008-07-29, 02:27:04,VALID,1008.4,VALID,0,VALID,95.5431,VALID,0.105969,VALID,23.7896,VALID,157,VALID,0.639453,
2008-07-29, 02:28:04,VALID,1008.41,VALID,0,VALID,95.5354,VALID,0.105969,VALID,23.8091,VALID,157,VALID,0.502734,
2008-07-29, 02:29:04,VALID,1008.44,VALID,0,VALID,95.5659,VALID,0.105969,VALID,23.8091,VALID,157,VALID,0.174609,
2008-07-29, 02:30:04,VALID,1008.45,VALID,0,VALID,95.5736,VALID,0,VALID,23.8109,VALID,157,VALID,0.0542969,
2008-07-29, 02:31:04,VALID,1008.44,VALID,0,VALID,95.5888,VALID,0,VALID,23.8109,VALID,157,VALID,0,
2008-07-29, 02:32:04,VALID,1008.45,VALID,0,VALID,95.5964,VALID,0,VALID,23.8109,VALID,157,VALID,0.224219,
2008-07-29, 02:33:04,VALID,1008.46,VALID,0,VALID,95.5888,VALID,0,VALID,23.8304,VALID,157,VALID,0.126563,
2008-07-29, 02:34:04,VALID,1008.45,VALID,0,VALID,95.5888,VALID,0,VALID,23.8109,VALID,157,VALID,0.339453,
2008-07-29, 02:35:04,VALID,1008.47,VALID,0,VALID,95.5964,VALID,0,VALID,23.8304,VALID,165,VALID,0.651563,
2008-07-29, 02:36:04,VALID,1008.51,VALID,0,VALID,95.5888,VALID,0,VALID,23.8304,VALID,165,VALID,0.770703,
2008-07-29, 02:37:04,VALID,1008.53,VALID,0,VALID,95.5888,VALID,0,VALID,23.8304,VALID,166,VALID,0.483203,
2008-07-29, 02:38:04,VALID,1008.53,VALID,0,VALID,95.5964,VALID,0,VALID,23.8091,VALID,169,VALID,0.478125,
2008-07-29, 02:39:04,VALID,1008.58,VALID,0,VALID,95.5888,VALID,0.105969,VALID,23.8499,VALID,183,VALID,0.321484,
2008-07-29, 02:40:04,VALID,1008.58,VALID,0,VALID,95.5964,VALID,0,VALID,23.8499,VALID,183,VALID,0.0332031,
2008-07-29, 02:41:04,VALID,1008.58,VALID,0,VALID,95.5736,VALID,0,VALID,23.8481,VALID,183,VALID,0.121094,
2008-07-29, 02:42:04,VALID,1008.59,VALID,0,VALID,95.5812,VALID,0,VALID,23.8499,VALID,183,VALID,0,
2008-07-29, 02:43:04,VALID,1008.57,VALID,0,VALID,95.6193,VALID,0,VALID,23.8499,VALID,183,VALID,0,
2008-07-29, 02:44:04,VALID,1008.57,VALID,0,VALID,95.5964,VALID,0,VALID,23.8304,VALID,183,VALID,0,
2008-07-29, 02:45:04,VALID,1008.58,VALID,0,VALID,95.5888,VALID,0,VALID,23.8499,VALID,182,VALID,0.0414063,
2008-07-29, 02:46:04,VALID,1008.57,VALID,0,VALID,95.6041,VALID,0,VALID,23.8889,VALID,120,VALID,0.374609,
2008-07-29, 02:47:04,VALID,1008.6,VALID,0,VALID,95.6269,VALID,0,VALID,23.8871,VALID,113,VALID,0.445313,
2008-07-29, 02:48:04,VALID,1008.58,VALID,0,VALID,95.6117,VALID,0,VALID,23.9084,VALID,136,VALID,0.585938,
2008-07-29, 02:49:04,VALID,1008.56,VALID,0,VALID,95.5659,VALID,0,VALID,23.9278,VALID,121,VALID,0.719922,
2008-07-29, 02:50:04,VALID,1008.54,VALID,0,VALID,95.5354,VALID,0.105969,VALID,23.9473,VALID,122,VALID,0.209375,
2008-07-29, 02:51:04,VALID,1008.51,VALID,0,VALID,95.5202,VALID,0,VALID,23.9863,VALID,122,VALID,0.146875,
2008-07-29, 02:52:04,VALID,1008.49,VALID,0,VALID,95.4897,VALID,0,VALID,23.9845,VALID,122,VALID,0.182812,
2008-07-29, 02:53:04,VALID,1008.5,VALID,0,VALID,95.4592,VALID,0,VALID,23.9668,VALID,122,VALID,0.236719,
2008-07-29, 02:54:04,VALID,1008.48,VALID,0,VALID,95.4516,VALID,0,VALID,23.9473,VALID,122,VALID,0,
2008-07-29, 02:55:04,VALID,1008.49,VALID,0,VALID,95.4439,VALID,0,VALID,23.9863,VALID,122,VALID,0,
2008-07-29, 02:56:04,VALID,1008.48,VALID,0,VALID,95.4134,VALID,0,VALID,23.9668,VALID,122,VALID,0,
2008-07-29, 02:57:04,VALID,1008.49,VALID,0,VALID,95.4134,VALID,0,VALID,23.9668,VALID,122,VALID,0,
2008-07-29, 02:58:04,VALID,1008.48,VALID,0,VALID,95.4058,VALID,0,VALID,23.9473,VALID,122,VALID,0,
2008-07-29, 02:59:04,VALID,1008.49,VALID,0,VALID,95.4058,VALID,0,VALID,23.9278,VALID,122,VALID,0,
2008-07-29, 03:00:04,VALID,1008.49,VALID,0,VALID,95.4058,VALID,0,VALID,23.9297,VALID,122,VALID,0.0394531,
2008-07-29, 03:01:04,VALID,1008.55,VALID,0,VALID,95.3982,VALID,0,VALID,23.8889,VALID,122,VALID,0.163281,
2008-07-29, 03:02:04,VALID,1008.55,VALID,0,VALID,95.4134,VALID,0,VALID,23.8694,VALID,122,VALID,0.366797,
2008-07-29, 03:03:04,VALID,1008.58,VALID,0,VALID,95.4058,VALID,0,VALID,23.8499,VALID,122,VALID,0.331641,
2008-07-29, 03:04:04,VALID,1008.59,VALID,0,VALID,95.4211,VALID,0,VALID,23.8304,VALID,95,VALID,0.455078,
2008-07-29, 03:05:04,VALID,1008.6,VALID,0,VALID,95.3905,VALID,0,VALID,23.8109,VALID,3,VALID,0.429688,
2008-07-29, 03:06:04,VALID,1008.59,VALID,0,VALID,95.4211,VALID,0,VALID,23.8109,VALID,2,VALID,0.330078,
2008-07-29, 03:07:04,VALID,1008.57,VALID,0,VALID,95.4211,VALID,0,VALID,23.772,VALID,2,VALID,0.240234,
2008-07-29, 03:08:04,VALID,1008.58,VALID,0,VALID,95.4516,VALID,0,VALID,23.772,VALID,2,VALID,0.189844,
2008-07-29, 03:09:04,VALID,1008.57,VALID,0,VALID,95.4668,VALID,0,VALID,23.733,VALID,2,VALID,0.176563,
2008-07-29, 03:10:04,VALID,1008.55,VALID,0,VALID,95.4897,VALID,0,VALID,23.733,VALID,2,VALID,0.123438,
2008-07-29, 03:11:04,VALID,1008.54,VALID,0,VALID,95.4897,VALID,0,VALID,23.7135,VALID,2,VALID,0.161719,
2008-07-29, 03:12:04,VALID,1008.52,VALID,0,VALID,95.4897,VALID,0,VALID,23.6745,VALID,2,VALID,0.300781,
2008-07-29, 03:13:04,VALID,1008.53,VALID,0,VALID,95.5049,VALID,0,VALID,23.6745,VALID,2,VALID,0.308594,
2008-07-29, 03:14:04,VALID,1008.51,VALID,0,VALID,95.5278,VALID,0,VALID,23.655,VALID,2,VALID,0.326562,
2008-07-29, 03:15:04,VALID,1008.52,VALID,0,VALID,95.5278,VALID,0,VALID,23.6356,VALID,2,VALID,0.233984,
2008-07-29, 03:16:04,VALID,1008.51,VALID,0,VALID,95.5431,VALID,0,VALID,23.6161,VALID,2,VALID,0.199609,
2008-07-29, 03:17:04,VALID,1008.51,VALID,0,VALID,95.5431,VALID,0,VALID,23.5966,VALID,2,VALID,0.171094,
2008-07-29, 03:18:04,VALID,1008.51,VALID,0,VALID,95.5659,VALID,0,VALID,23.5966,VALID,2,VALID,0.130859,
2008-07-29, 03:19:04,VALID,1008.49,VALID,0,VALID,95.5736,VALID,0,VALID,23.5984,VALID,2,VALID,0,
2008-07-29, 03:20:04,VALID,1008.49,VALID,0,VALID,95.5888,VALID,0,VALID,23.5576,VALID,2,VALID,0,
2008-07-29, 03:21:04,VALID,1008.48,VALID,0,VALID,95.6117,VALID,0,VALID,23.5576,VALID,2,VALID,0.00429688,
2008-07-29, 03:22:04,VALID,1008.47,VALID,0,VALID,95.6346,VALID,0,VALID,23.5576,VALID,2,VALID,0,
2008-07-29, 03:23:04,VALID,1008.48,VALID,0,VALID,95.6498,VALID,0,VALID,23.5984,VALID,2,VALID,0,
2008-07-29, 03:24:04,VALID,1008.5,VALID,0,VALID,95.6574,VALID,0,VALID,23.5576,VALID,2,VALID,0,
2008-07-29, 03:25:04,VALID,1008.53,VALID,0,VALID,95.6727,VALID,0,VALID,23.5789,VALID,2,VALID,0,
2008-07-29, 03:26:04,VALID,1008.51,VALID,0,VALID,95.6956,VALID,0,VALID,23.5771,VALID,2,VALID,0,
2008-07-29, 03:27:04,VALID,1008.55,VALID,0,VALID,95.7185,VALID,0,VALID,23.5771,VALID,2,VALID,0,
2008-07-29, 03:28:04,VALID,1008.54,VALID,0,VALID,95.7337,VALID,0,VALID,23.5771,VALID,2,VALID,0.154297,
2008-07-29, 03:29:04,VALID,1008.55,VALID,0,VALID,95.749,VALID,0,VALID,23.5753,VALID,2,VALID,0.250391,
2008-07-29, 03:30:04,VALID,1008.6,VALID,0,VALID,95.7413,VALID,0,VALID,23.5966,VALID,2,VALID,0.282813,
2008-07-29, 03:31:04,VALID,1008.57,VALID,0,VALID,95.7337,VALID,0,VALID,23.5771,VALID,2,VALID,0.291406,
2008-07-29, 03:32:04,VALID,1008.57,VALID,0,VALID,95.7413,VALID,0,VALID,23.5984,VALID,2,VALID,0.323438,
2008-07-29, 03:33:04,VALID,1008.59,VALID,0,VALID,95.7413,VALID,0,VALID,23.5789,VALID,2,VALID,0.258984,
2008-07-29, 03:34:04,VALID,1008.6,VALID,0,VALID,95.749,VALID,0,VALID,23.5789,VALID,2,VALID,0.219531,
2008-07-29, 03:35:04,VALID,1008.57,VALID,0,VALID,95.749,VALID,0,VALID,23.5381,VALID,2,VALID,0.177344,
2008-07-29, 03:36:04,VALID,1008.59,VALID,0,VALID,95.749,VALID,0,VALID,23.5594,VALID,2,VALID,0.0824219,
2008-07-29, 03:37:04,VALID,1008.58,VALID,0,VALID,95.749,VALID,0,VALID,23.5186,VALID,2,VALID,0,
2008-07-29, 03:38:04,VALID,1008.56,VALID,0,VALID,95.749,VALID,0,VALID,23.5186,VALID,2,VALID,0,
2008-07-29, 03:39:04,VALID,1008.57,VALID,0,VALID,95.7413,VALID,0,VALID,23.4992,VALID,2,VALID,0,
2008-07-29, 03:40:04,VALID,1008.55,VALID,0,VALID,95.7718,VALID,0,VALID,23.5204,VALID,2,VALID,0,
2008-07-29, 03:41:04,VALID,1008.53,VALID,0,VALID,95.7718,VALID,0,VALID,23.5009,VALID,2,VALID,0,
2008-07-29, 03:42:04,VALID,1008.51,VALID,0,VALID,95.7642,VALID,0,VALID,23.4992,VALID,2,VALID,0.279687,